Regional Weather Roundup
Issued by NWS State College, PA

Home | Current Version | Previous Version | Graphics & Text | Print | Product List | Glossary Off
Versions: 1 2 3 4 5 6 7 8 9 10 11 12 13 14 15 16 17 18 19 20 21 22 23 24 25 26 27 28 29 30 31 32 33 34 35 36 37 38 39 40 41 42 43 44 45 46 47 48 49 50

000
ASUS41 KCTP 250703
RWRCTP

REGIONAL WEATHER ROUNDUP
NATIONAL WEATHER SERVICE STATE COLLEGE PA
300 AM EDT SUN JUN 25 2017

Note: "fair" indicates few or no clouds below 12,000 feet with no
significant weather and/or obstructions to visibility.

* = STATION THAT DOES NOT REPORT PRECIPITATION /E.G. RAIN...SNOW...ETC/
    THUNDER OR FOG.

PAZ002>004-007>009-013>016-020>023-029>032-250800-
WESTERN PENNSYLVANIA

CITY           SKY/WX    TMP DP  RH WIND       PRES   REMARKS
ERIE           MOCLDY    60  54  80 S5        29.99S
MEADVILLE      MOCLDY    58  56  93 SW5       30.02S
FRANKLIN*      CLEAR     55  52  88 W6        30.03S
NEW CASTLE     FAIR      58  57  97 CALM      30.03S
BEAVER COUNTY  NOT AVBL
BUTLER*        CLEAR     57  54  88 CALM      30.02F
PITTSBURGH INT PTCLDY    62  57  83 W6        30.02S
PITTSBURGH     PTCLDY    65  53  65 W3        30.02S
INDIANA*       CLOUDY    59  57  94 CALM      30.05F
LATROBE        MOCLDY    61  59  94 S3        30.04S
WASHINGTON CO* MOCLDY    57  54  88 CALM      30.05S
$$

PAZ004>006-010>012-017>019-024>028-033>037-041-042-045-046-049>053-250800-
CENTRAL PENNSYLVANIA

CITY           SKY/WX    TMP DP  RH WIND       PRES   REMARKS
BRADFORD       PTCLDY    57  53  86 CALM      30.02S
DUBOIS         FOG       55  54  96 CALM      30.02S VSB 1/4
CLEARFIELD     CLOUDY    59  58  96 CALM      30.02F
JOHNSTOWN      CLEAR     60  54  80 SW5       30.05R
ALTOONA        CLEAR     61  57  87 S5        30.03S
STATE COLLEGE  CLOUDY    59  56  90 CALM      30.01S
WILLIAMSPORT   CLEAR     60  58  92 NW5       29.96F
SELINSGROVE    CLEAR     61  60  97 CALM      29.98S
FT INDIANTOWN  CLEAR     63  63 100 CALM      29.96F
CAPITAL CITY   CLEAR     65  60  84 SW3       29.97S
HARRISBURG     CLEAR     71  61  70 CALM      29.96S
YORK           CLEAR     66  60  81 W5        29.98S
$$

PAZ038>040-043-044-047-048-054-055-060>062-067>071-250800-
EASTERN PENNSYLVANIA

CITY           SKY/WX    TMP DP  RH WIND       PRES   REMARKS
SCRANTON       CLEAR     60  58  92 E3        29.98S
MOUNT POCONO   CLEAR     55  55 100 NW7       29.99F
ALLENTOWN      CLEAR     64  58  80 CALM      29.95S
QUAKERTOWN*    SUNNY     63  61  94 CALM      29.96S
READING        CLEAR     66  64  93 N3        29.95S
LANCASTER      CLEAR     67  63  87 W5        29.96F
COATESVILLE    SUNNY     68  61  77 CALM      29.98R
POTTSTOWN      CLEAR     64  62  93 CALM      29.97S
BLUE BELL      CLEAR     63  63 100 CALM      29.96R
DOYLESTOWN     CLEAR     65  61  87 CALM      29.94S
WILLOW GROVE   NOT AVBL
NORTH PHILA    CLEAR     73  61  65 N3        29.95R
PHILADELPHIA   CLEAR     74  59  59 NW5       29.94R
$$



USA.gov is the U.S. government's official web portal to all federal, state and local government web resources and services.